Погода в Твери

Погода в Твери : погода сейчас, прогноз погоды и архив. Всё, что Вы хотите узнать о погоде в Твери!

Хотите узнать прогноз погоды в Твери? Тогда Вам сюда: Погода в Твери

Поиск расширенной информации на нашем сайте:

Полезная информация:

Другие новости

Новости СМИ2

Главная страница сайта

Новости сайта

03.07.2017

Напоминаем, что на нашем специализированном сайте Метеоцентр.Азия вы можете получить высокодетализированные автоматические прогнозы погоды по пунктам России, СНГ и мира в авиационном формате (включающие направление и скорость ветра, видимость, явления погоды, количество и форму облачности, нижнюю и верхнюю границу облачности).

Рекомендуем:

Погода в Твери - сегодня

Время (UTC), дата Ветер
(°,м/с) 
Видим.   Явления Облачность Т
(°С)
Тd
(°С)
f(%) Тe
(°С)
Pmin
(гПа)
dP
(гПа)
Po
(мм)
O2
(г/м3)
Тmin Tmax R s Состояние
почвы
12 15.07.19 180 (Ю) 10 км  гроза без осадков{ливн. осадки}  8/6 600 м кучево-дожд., средняя 
[Cb calv|Ac trans]
+17.3 +10 62 +19  1010.9  745  281           
15 15.07.19 010 (С) 10 км  в посл. час ливневой дождь{гроза}  8/3 1000 м кучево-дожд., средняя 
[Cb cap|Ac trans]
+14.3 +12 86 +20  1011.7  0.6  746  283         
18 15.07.19 тихо ()   10 км  {гроза, ливн. осадки}  6/3 1000 м средняя 
[Sc|Ac trans]
+13.5 +11.8 89 +17  1011.4  -0.3  746  284    +20.3     
21 15.07.19 тихо ()   0500 м  туман  3/0 средняя 
[Ac trans]
+9.4 +8.3 93 +9  1012.1  0.4  746  289           
00 16.07.19 тихо ()   0500 м  туман  ?/?  
+6.8 +6.6 99 +7  1012.5  0.2  746  292           
03 16.07.19 тихо ()   0500 м  туман  ?/?  
+7.9 +7.5 97 +8  1012.4  746  291  +6.1         
06 16.07.19 090 (В) 10 км  в посл. час туман  6/3 1000 м средняя, верхняя 
[Sc|Ac trans|Ci fib]
+16 +13.1 83 +23  1012  0.1  746  281  +6.1        влажная 
09 16.07.19 060 (СВ) 10 км    9/5 1000 м средняя 
[Cu Sc|Ac trans]
+19 +9.5 54 +22  1011  -0.8  746  279           
12 16.07.19 090 (В) 10 км  слаб. ливневой дождь  10/5 1000 м кучево-дожд., средняя 
[Cb cap|Ac trans]
+16.5 +13.1 80 +23  1010.7  -0.4  745  281           
15 16.07.19 060 (СВ) 10 км  в посл. час ливневой дождь  9/5 1000 м средняя 
[Sc|Ac trans]
+16.9 +12.8 77 +23  1009.7  -1  744  280      0.3     
18 16.07.19 080 (В) 10 км  {ливн. осадки}  9/5 1000 м кучево-дожд., средняя 
[Cb cap|Ac trans]
+15.8 +12.9 83 +22  1008.8  -0.9  744  281    +19.3  0.3     
21 16.07.19 090 (В) 10 км    6/0 средняя 
[Ac trans]
+13.6 +12.5 93 +19  1008.3  -0.6  743  283           
00 17.07.19 100 (В) 10 км  слаб. ливневой дождь  10/5 1000 м кучево-дожд., средняя 
[Cb cap|Ac trans]
+14 +12.8 92 +20  1008.2  -0.2  743  282           
03 17.07.19 120 (ЮВ) 2000 м  дымка{ливн. осадки}  10/10 300 м кучево-дожд. 
[Cb cap]
+14 +12.8 92 +20  1008.2  743  282  +13.4    0.3     
06 17.07.19 110 (В) 4000 м  дымка{ливн. осадки}  10/10 200 м 
[St]
+15.7 +14.3 91 +24  1007.8  -0.3  743  280  +13.4      мокрая 
09 17.07.19 120 (ЮВ) 4000 м  слаб. ливневой дождь  10/10 200 м кучево-дожд. 
[Cb calv]
+16.4 +14.9 91 +26  1008.3  0.5  743  279           
12 17.07.19 100 (В) 10 км  слаб. ливневой дождь  10/8 600 м кучево-дожд., средняя 
[Cb calv|Ac trans]
+18.1 +15.4 84 +29  1007.9  -0.2  743  278           
15 17.07.19 060 (СВ) 10 км  {ливн. осадки}  10/5 1000 м кучево-дожд., средняя 
[Cb calv|Ac trans]
+19 +14.2 74 +29  1006.7  -1.1  742  277         
18 17.07.19 070 (В) 10 км  слаб. ливневой дождь  10/8 1000 м кучево-дожд., средняя 
[Cb cap|Ac trans]
+15.7 +14.2 91 +24  1006.7  -0.1  742  280    +19     
21 17.07.19 050 (СВ) 4000 м  слаб. ливневой дождь  10/10 300 м кучево-дожд. 
[Cb cap]
+14.5 +13.4 93 +22  1005.7  -1  741  281           
00 18.07.19 030 (СВ) 4000 м  слаб. дождь{ливн. осадки}  10/10 100 м 
[Frnb|Ns]
+14.6 +13.6 94 +23  1004.1  -1.6  740  280           
03 18.07.19 100 (В) 2000 м  дымка{дождь}  10/10 100 м 
[St]
+14.7 +13.8 94 +23  1002.9  -1.1  739  280  +14.4       
06 18.07.19 170 (Ю) 10 км  {дождь}  9/8 300 м средняя 
[St|Ac trans]
+17.1 +14.5 85 +26  1002.6  -0.3  739  277  +14.4      влажная 
09 18.07.19 160 (Ю) 10 км    8/8 600 м 
[Sc]
+19.6 +12.5 64 +26  1002.9  0.5  740  276           
12 18.07.19 190 (Ю) 10 км    8/8 600 м 
[Cu med, cong]
+22.6 +11.2 48 +26  1002.4  -0.4  739  273           
Время (UTC), дата Ветер
(°,м/с) 
Видим.   Явления Облачность Т
(°С)
Тd
(°С)
f(%) Тe
(°С)
Pmin
(гПа)
dP
(гПа)
Po
(мм)
O2
(г/м3)
Тmin Tmax R s Состояние
почвы

Для получения пояснительной информации подведите курсор к названию столбца.

ПОГОДА в Твери - архив

Всё, что Вы хотите узнать о погоде в Твери - удобно и подробно!

Выберите нужную дату (начиная с 1 января 2018* года) и нажмите кнопку "Найти".
Будут отображены архивные сводки погоды по пункту Тверь, начиная с указанной даты.


Отображать данные в формате CSV (для использования в таблицах Excel)


Внимание! Наш архив погоды предназначен исключительно для личного некоммерческого использования в познавательных целях. Если Вам необходимы официальные справки о состоянии погоды (для производственных, юридических, коммерческих и т.п. целей), обращайтесь в органы Росгидромета.

*Примечание: данная дата относится к архиву по метеостанциям СССР (Россия, СНГ, Балтия).
Архив по метеостанциям Зарубежной Европы и Азии (кроме Китая) хранится 10 дней, по другим регионам земного шара (Китай, Африка, Америка, Австралия, Океания) - 1 день.

Тверь - район местоположения метеостанции


Название, широта, долгота, высота метеостанции:
Тверь (город) 56.8°ш. 35.7°д. 137 м над ур. моря [Российская Федерация]

Дополнительная информация

В oтличие oт бoльшинства пoгoдных сайтoв мы публикуем пoдрoбную метеoинфoрмацию в детальнoм прoфессиoнальнoм фoрмате.

Характеристики температуры и влажнoсти вoздуха измеряются на высoте 2 м в тени вдали oт зданий и деревьев.
Скoрoсть ветра измеряется на высoте 10 м (на урoвне рoста челoвека скoрoсть ветра ниже в 1.5-2 раза). Если метеoстанция нахoдится в гoрoде или в лесу, тo скoрoсть ветра занижена на 2-4 м/с пo сравнению с oткрытым местoм. Скoрoсть ветра над акватoриями крупных рек и oзёр, а также на вершинах хoлмoв на 2-5 м/с выше, чем в oбычных услoвиях.
Атмoсфернoе давление в разных тoчках местнoсти мoжет значительнo oтличаться oт давления на метеoстанции, в зависимoсти oт услoвий рельефа (при пoдъёме на 10 м давление пoнижается примернo на 1 мм рт.ст.).